Regional Weather Roundup
Issued by NWS

Home | Current Version | Previous Version | Graphics & Text | Print | Product List | Glossary On
Versions: 1 2 3 4 5 6 7 8 9 10 11 12 13 14 15 16 17 18 19 20 21 22 23 24 25 26 27 28 29 30 31 32 33 34 35 36 37 38 39 40 41 42 43 44 45 46 47 48 49 50
000
ASUS43 KIND 210859
RWRIN

WEATHER ROUNDUP FOR INDIANA
NATIONAL WEATHER SERVICE INDIANAPOLIS IN
400 AM EST SUN DEC 21 2014

NOTE: "FAIR" INDICATES FEW OR NO CLOUDS BELOW 12,000 FEET WITH NO
SIGNIFICANT WEATHER AND/OR OBSTRUCTIONS TO VISIBILITY.

* - STATION DOES NOT REPORT WEATHER SUCH AS PRECIPITATION OR FOG.

+ - STATION NOT QUALITY CONTROLLED BY THE NATIONAL WEATHER SERVICE.
    USE DATA WITH CAUTION...ESPECIALLY DEWPOINT AND RELATIVE
    HUMIDITY OBSERVATIONS.

INZ001>003-010>013-019-020-211000-
NORTHWEST INDIANA

CITY           SKY/WX    TMP DP  RH WIND       PRES   REMARKS
VALPARAISO     CLOUDY    30  27  86 S6        30.26F WCI  24

$$

LMZ046-743>745-211000-
SOUTHERN LAKE MICHIGAN

STATION/POSITION TIME  TEMP WIND        PRES
                       AIR  DIR/SP/G
                 (UTC) (F)  (DEG/KT/KT) (MB)

$$

INZ004-005-014>016-021>024-211000-
NORTH CENTRAL INDIANA

CITY           SKY/WX    TMP DP  RH WIND       PRES   REMARKS
GOSHEN         CLOUDY    30  27  88 S5        30.27S FOG     WCI  25
SOUTH BEND     CLOUDY    31  26  82 S5        30.28R WCI  26

$$

INZ006>009-017-018-025>027-211000-
NORTHEAST INDIANA

CITY           SKY/WX    TMP DP  RH WIND       PRES   REMARKS
ANGOLA *+      CLOUDY    28  27  93 CALM      30.26F
FORT WAYNE     CLOUDY    30  26  85 S3        30.29F

$$

INZ028-029-035-036-043>045-051>053-211000-
WEST CENTRAL INDIANA

CITY           SKY/WX    TMP DP  RH WIND       PRES   REMARKS
GREENCASTLE +  CLEAR     21  18  86 CALM      30.28F FOG
LAFAYETTE      CLOUDY    29  24  82 S3        30.29R
TERRE HAUTE    CLEAR     23  20  88 CALM      30.29S FOG

$$

INZ030>032-037>040-046>048-054>057-064-065-211000-
CENTRAL INDIANA

CITY           SKY/WX    TMP DP  RH WIND       PRES   REMARKS
INDIANAPOLIS   CLEAR     24  22  91 SE3       30.28S FOG
-EAGLE CREEK   CLEAR     22  19  89 CALM      30.28S FOG
KOKOMO *+      CLOUDY    30  27  86 S5        30.28S WCI  25
MT COMFORT *+  CLEAR     23 N/A N/A CALM      30.30S
SHELBYVILLE    CLEAR     24  21  88 CALM      30.30R FOG

$$

INZ033-034-041-042-049-050-058-059-211000-
EAST CENTRAL INDIANA

CITY           SKY/WX    TMP DP  RH WIND       PRES   REMARKS
MUNCIE         MOCLDY    22  19  89 CALM      30.29S FOG

$$

INZ060-061-067>069-081>083-085>088-211000-
SOUTHWEST INDIANA

CITY           SKY/WX    TMP DP  RH WIND       PRES   REMARKS
EVANSVILLE     CLEAR     27  23  85 NE3       30.30S FOG
HUNTINGBURG *+ CLEAR     25  21  86 CALM      30.30S

$$

INZ062-063-066-070>080-084-089>092-211000-
SOUTH CENTRAL AND SOUTHEAST INDIANA

CITY           SKY/WX    TMP DP  RH WIND       PRES   REMARKS
BLOOMINGTON    CLEAR     20  19  96 CALM      30.28F FOG

$$




USA.gov is the U.S. government's official web portal to all federal, state and local government web resources and services.